Terminal Aerodrome Forecast
Issued by NWS Dodge City, KS

Home | Current Version | Previous Version | Text Only | Print | Product List | Glossary On
Versions: 1 2 3 4 5 6 7 8 9 10 11 12 13 14 15 16 17 18 19 20 21 22 23 24 25 26 27 28 29 30 31 32 33 34
000
FTUS43 KDDC 122320
TAFDDC
TAF
KDDC 122320Z 1300/1324 04009KT P6SM FEW100
     FM130600 11007KT P6SM SCT050
     FM131800 17018G25KT P6SM SCT110=

USA.gov is the U.S. government's official web portal to all federal, state and local government web resources and services.